This is the latest recevied weather packets stored in our database for station/object N4BBA. If no packets are shown the sender has not sent any weather packets the latest 10 day(s).
| Time | Temp. | Humidity | Pressure | Rain* | Wind** | Luminosity | Snow |
|---|---|---|---|---|---|---|---|
| 1777819793 | 13.89° C | 59% | 1018.9 hPa | 0 mm | - | 675 W/m² | - |
| 1777819491 | 13.89° C | 59% | 1018.9 hPa | 0 mm | - | 664 W/m² | - |
| 1777819189 | 13.33° C | 60% | 1018.9 hPa | 0 mm | - | 653 W/m² | - |
| 1777818885 | 13.33° C | 61% | 1018.8 hPa | 0 mm | - | 643 W/m² | - |
| 1777818581 | 13.33° C | 64% | 1018.8 hPa | 0 mm | - | 628 W/m² | - |
| 1777818279 | 13.89° C | 67% | 1018.5 hPa | 0 mm | - | 613 W/m² | - |
| 1777817975 | 13.33° C | 71% | 1018.7 hPa | 0 mm | - | 601 W/m² | - |
| 1777817672 | 13.33° C | 73% | 1018.8 hPa | 0 mm | - | 587 W/m² | - |
| 1777817369 | 12.78° C | 75% | 1018.8 hPa | 0 mm | - | 572 W/m² | - |
| 1777817066 | 12.78° C | 79% | 1018.8 hPa | 0 mm | - | 556 W/m² | - |
| 1777816762 | 12.22° C | 82% | 1018.8 hPa | 0 mm | - | 541 W/m² | - |
| 1777816460 | 12.78° C | 86% | 1018.8 hPa | 0 mm | - | 526 W/m² | - |
| 1777816157 | 12.22° C | 88% | 1018.8 hPa | 0 mm | - | 514 W/m² | - |
| 1777815855 | 12.78° C | 91% | 1018.7 hPa | 0 mm | - | 498 W/m² | - |
| 1777815552 | 12.22° C | 92% | 1018.7 hPa | 0 mm | - | 482 W/m² | - |
| 1777815250 | 11.67° C | 94% | 1018.6 hPa | 0 mm | - | 467 W/m² | - |
| 1777814945 | 11.67° C | 95% | 1018.9 hPa | 0 mm | - | 451 W/m² | - |
| 1777814642 | 11.11° C | 96% | 1018.7 hPa | 0 mm | - | 432 W/m² | - |
| 1777814339 | 11.11° C | 96% | 1018.6 hPa | 0 mm | - | 415 W/m² | - |
| 1777814035 | 10.56° C | 97% | 1018.8 hPa | 0 mm | - | 398 W/m² | - |
| 1777813733 | 10.56° C | 97% | 1018.7 hPa | 0 mm | - | 381 W/m² | - |
| 1777813430 | 10° C | 98% | 1018.5 hPa | 0 mm | - | 395 W/m² | - |
| 1777813127 | 10° C | 98% | 1018.5 hPa | 0 mm | - | 298 W/m² | - |
| 1777812826 | 9.44° C | 98% | 1018.7 hPa | 0 mm | - | 388 W/m² | - |
| 1777812522 | 8.89° C | 98% | 1018.9 hPa | 0 mm | - | 387 W/m² | - |
* Rain latest hour (hover to see other rain measurements)
** Current wind speed in m/s (hover to see current wind gust speed)